Mason City, IA

4:32 AM CDT on March 23, 2017 (GMT -0500)
Mason City Municipal

Weather History for KMCW - November, 2013

Change the Weather History Date:

Wednesday, November 6, 2013

  Actual Average Record
Temperature  
Mean Temperature 35 °F 39 °F  
Max Temperature 42 °F 49 °F 75 °F (1916)
Min Temperature 27 °F 29 °F 0 °F (1991)
Degree Days  
Heating Degree Days 30 26  
Month to date heating degree days 155 147  
Since 1 July heating degree days 813 885  
Cooling Degree Days 0 0  
Month to date cooling degree days 0 0  
Year to date cooling degree days 718 616  
Moisture  
Dew Point 28 °F    
Average Humidity 71    
Maximum Humidity 96    
Minimum Humidity 45    
Precipitation  
Precipitation T in 0.07 in 1.23 in (2000)
Month to date precipitation 1.10 0.42  
Year to date precipitation 37.46 32.50  
Snow  
Snow 0.00 in 0.10 in 1.50 in (1943)
Month to date snowfall 0.0 0.4  
Since 1 July snowfall T 0.8  
Since 1 September snowfall T 0.8  
Snow Depth 0.00 in    
Sea Level Pressure  
Sea Level Pressure 30.10 in    
Wind  
Wind Speed 14 mph (NW)    
Max Wind Speed 28 mph    
Max Gust Speed 35 mph    
Visibility 10 miles    
Events Rain    
T = Trace of Precipitation, MM = Missing Value Source: NWS Daily Summary

Daily Weather History Graph

Daily Weather History Graph

Search for Another Location

Airport or City:

Trip Planner

Search our weather history database for the weather conditions in past years. The results will help you decide how hot, cold, wet, or windy it might be!

Date:

Astronomy

Nov. 06, 2013 Rise Set
Actual Time 6:54 AM CST 4:58 PM CST
Civil Twilight 6:24 AM CST 5:28 PM CST
Nautical Twilight 5:50 AM CST 6:02 PM CST
Astronomical Twilight 5:17 AM CST 6:35 PM CST
Moon 10:12 AM CST (11/6) 8:01 PM CST (11/6)
Length of Visible Light 11h 03m
Length of Day
10h 03m
Waxing Crescent, 14% of the Moon is Illuminated
Nov 6
Waxing Crescent
Nov 9
First Quarter
Nov 17
Full
Nov 25
Last Quarter
Dec 2
New

Hourly Weather History & Observations

Time (CST) Temp. Windchill Dew Point Humidity Pressure Visibility Wind Dir Wind Speed Gust Speed Precip Events Conditions
12:53 AM 35.1 °F 23.8 °F 34.0 °F 96% 29.94 in 4.0 mi North 20.7 mph 27.6 mph 0.00 in Rain Light Rain
1:53 AM 35.1 °F 24.8 °F 34.0 °F 96% 29.93 in 6.0 mi North 17.3 mph 31.1 mph 0.00 in Rain Light Rain
2:53 AM 34.0 °F 22.4 °F 33.1 °F 96% 29.96 in 8.0 mi North 20.7 mph 31.1 mph 0.00 in   Overcast
3:17 AM 33.8 °F 21.3 °F 33.8 °F 100% 29.95 in 10.0 mi North 24.2 mph 31.1 mph N/A   Overcast
3:53 AM 34.0 °F 21.8 °F 32.0 °F 92% 29.97 in 10.0 mi North 23.0 mph 31.1 mph N/A   Overcast
4:53 AM 34.0 °F 22.4 °F 32.0 °F 92% 29.99 in 10.0 mi North 20.7 mph 31.1 mph N/A   Overcast
5:18 AM 33.8 °F 22.2 °F 30.2 °F 87% 29.99 in 10.0 mi NNW 20.7 mph 26.5 mph N/A   Mostly Cloudy
5:53 AM 33.1 °F 21.5 °F 32.0 °F 96% 30.01 in 10.0 mi NNW 19.6 mph - N/A   Overcast
6:13 AM 33.8 °F 22.5 °F 32.0 °F 93% 30.01 in 10.0 mi NNW 19.6 mph - N/A   Overcast
6:53 AM 33.1 °F 22.2 °F 30.9 °F 92% 30.04 in 10.0 mi NNW 17.3 mph - N/A   Overcast
7:10 AM 32.0 °F 21.2 °F 30.2 °F 93% 30.02 in 10.0 mi NNW 16.1 mph - N/A   Scattered Clouds
7:53 AM 33.1 °F 21.9 °F 30.9 °F 92% 30.06 in 10.0 mi NW 18.4 mph - N/A   Mostly Cloudy
8:14 AM 32.0 °F 19.8 °F 30.2 °F 93% 30.06 in 10.0 mi NNW 20.7 mph 28.8 mph N/A   Mostly Cloudy
8:53 AM 33.1 °F 23.0 °F 30.0 °F 89% 30.11 in 10.0 mi NNW 15.0 mph - N/A   Mostly Cloudy
9:11 AM 35.6 °F 26.2 °F 30.2 °F 81% 30.09 in 10.0 mi NNW 15.0 mph 26.5 mph N/A   Mostly Cloudy
9:53 AM 36.0 °F 25.6 °F 28.9 °F 76% 30.12 in 10.0 mi NW 18.4 mph - N/A   Clear
10:53 AM 37.9 °F 28.5 °F 28.0 °F 68% 30.14 in 10.0 mi NW 17.3 mph - N/A   Clear
11:53 AM 39.9 °F 31.8 °F 27.0 °F 60% 30.15 in 10.0 mi NW 15.0 mph - N/A   Clear
12:53 PM 42.1 °F 34.5 °F 24.1 °F 49% 30.14 in 10.0 mi NW 15.0 mph - N/A   Clear
1:53 PM 41.0 °F 32.8 °F 21.0 °F 45% 30.16 in 10.0 mi NW 16.1 mph - N/A   Clear
2:53 PM 41.0 °F 32.8 °F 21.9 °F 47% 30.18 in 10.0 mi NW 16.1 mph - N/A   Clear
3:53 PM 37.9 °F 28.9 °F 21.0 °F 51% 30.20 in 10.0 mi NW 16.1 mph - N/A   Clear
4:53 PM 32.0 °F 25.6 °F 23.0 °F 69% 30.20 in 10.0 mi WNW 6.9 mph - N/A   Clear
5:53 PM 28.0 °F 21.7 °F 21.9 °F 78% 30.22 in 10.0 mi West 5.8 mph - N/A   Clear
6:53 PM 28.9 °F 21.9 °F 23.0 °F 78% 30.23 in 10.0 mi West 6.9 mph - N/A   Clear
7:53 PM 28.9 °F 21.1 °F 23.0 °F 78% 30.24 in 10.0 mi West 8.1 mph - N/A   Clear
8:53 PM 28.0 °F 21.7 °F 23.0 °F 81% 30.24 in 10.0 mi West 5.8 mph - N/A   Clear
9:53 PM 27.0 °F 19.5 °F 23.0 °F 85% 30.25 in 10.0 mi West 6.9 mph - N/A   Clear
10:53 PM 30.0 °F 22.4 °F 24.1 °F 79% 30.24 in 10.0 mi West 8.1 mph - N/A   Clear
11:53 PM 32.0 °F 24.8 °F 26.1 °F 79% 30.24 in 10.0 mi WSW 8.1 mph - N/A   Mostly Cloudy